Regional Weather Roundup
Issued by NWS

Home | Current Version | Previous Version | Graphics & Text | Print | Product List | Glossary On
Versions: 1 2 3 4 5 6 7 8 9 10 11 12 13 14 15 16 17 18 19 20 21 22 23 24 25 26 27 28 29 30 31 32 33 34 35 36 37 38 39 40 41 42 43 44 45 46 47 48 49 50
000
ASUS43 KLOT 242103
RWRIL

ILLINOIS REGIONAL WEATHER ROUNDUP
NATIONAL WEATHER SERVICE CHICAGO/ROMEOVILLE IL
400 PM CDT SUN JUL 24 2016

NOTE: "FAIR" INDICATES FEW OR NO CLOUDS BELOW 12,000 FEET WITH NO
SIGNIFICANT WEATHER AND/OR OBSTRUCTIONS TO VISIBILITY.

* THESE STATIONS ARE NOT UNDER NWS QUALITY CONTROL. THEY ALSO MAY NOT
  REPORT WEATHER SUCH AS PRECIPITATION OR FOG.

ILZ001-002-007-009-015-016-024-242200-
NORTHWEST ILLINOIS

CITY           SKY/WX    TMP DP  RH WIND       PRES   REMARKS
MOLINE         CLOUDY    91  78  65 W8        29.86S HX 106
STERLING*      MOSUNNY   89  80  74 W10       29.87R HX 106
SAVANNA*       MOSUNNY   91  80  71 NW9       29.85F HX 109
$$

ILZ003-004-008-010-011-017-018-242200-
NORTH CENTRAL ILLINOIS

CITY           SKY/WX    TMP DP  RH WIND       PRES   REMARKS
ROCKFORD       PTSUNNY   94  79  62 SW18      29.86S HX 111
FREEPORT*      MOSUNNY   90  79  70 SW10      29.87S HX 106
ROCHELLE*      PTSUNNY   90  80  74 W13       29.87R HX 107
$$

ILZ005-006-012>014-019>023-242200-
NORTHEAST ILLINOIS

CITY           SKY/WX    TMP DP  RH WIND       PRES   REMARKS
CHICAGO-OHARE  CLOUDY    90  77  65 SW16G24   29.85R HX 103
CHICAGO-MIDWAY PTSUNNY   93  78  61 SW20G30   29.86R HX 108
AURORA         CLOUDY    91  82  75 SW10      29.87S HX 113
LANSING*       CLOUDY    89  77  67 SW15      29.89S HX 102
WAUKEGAN       CLOUDY    89  75  63 SW12      29.83S THUNDER HX  99
DUPAGE AIRPORT CLOUDY    86  73  65 S8        29.87R THUNDER HX  93
WHEELING       TSTM      91  77  63 S14G22    29.86R HX 104
MORRIS*        PTSUNNY   90  81  74 SW9       29.87S HX 109
NORTHERLY ISL    N/A     90  75  61 S17         N/A  HX 100
$$

LMZ740>746-242200-
SOUTHERN LAKE MICHIGAN

STATION/POSITION SKY/WX   TEMP    WIND        PRES    VSBY  WAVE
                          AIR SEA DIR/SP/G                  HT/PER
                          (F)     (DEG/KT/KT) (MB)    (MI)  (FT/S)
SOUTHERN BUOY              76 72  150/ 17/ 19 1009.4          3/ 5
WILMETTE HARBOR            79 63  230/ 10/ 14   N/A           2/ 2
HARRISON CRIB              87     190/ 23/ 24   N/A
BURNHAM HARBOR             90     200/ 17/ 21   N/A
CALUMET HARBOR             89     180/ 11/ 16 1010.9F
BURNS HARBOR               88     190/ 11/ 21 1011.9F
MICHIGAN CITY              87     170/ 17/ 20   N/A
MICHIGAN CITY 6N           83 74  200/ 12/ 16   N/A           2/ 2
ST. JOSEPH                 80 74  180/ 10/ 12 1011.3F         2/ 3
$$

ILZ025>027-034>036-040-047-049-050-058-095>099-242200-
WEST-CENTRAL ILLINOIS

CITY           SKY/WX    TMP DP  RH WIND       PRES   REMARKS
QUINCY         CLOUDY    93  79  63 SW6       29.90R HX 110
GALESBURG*     MOSUNNY   90  79  70 SW7       29.89S HX 106
MACOMB*        CLOUDY    89  80  74 W6        29.90S HX 105
JACKSONVILLE*  MOSUNNY   92  80  67 S10       29.89F HX 109
PITTSFIELD*    MOSUNNY   93  81  67 S6        29.91S HX 114
$$

ILZ028>032-037-038-041>044-048-051>054-059>061-242200-
CENTRAL ILLINOIS

CITY           SKY/WX    TMP DP  RH WIND       PRES   REMARKS
BLOOMINGTON    MOSUNNY   87  81  82 S14       29.91F HX 104
DECATUR        PTSUNNY   94  79  61 S12       29.92F HX 111
PEORIA         CLOUDY    91  83  77 SW14      29.89R HX 114
LACON*         PTSUNNY   93  79  64 SW8       29.86F HX 110
LINCOLN*       CLOUDY    89  83  82 S8        29.89F HX 111
SPRINGFIELD    PTSUNNY   94  81  66 S12       29.90F HX 115
TAYLORVILLE    NOT AVBL
$$

ILZ033-039-045-046-055>057-062-063-242200-
EAST-CENTRAL ILLINOIS

CITY           SKY/WX    TMP DP  RH WIND       PRES   REMARKS
CHAMPAIGN      MOSUNNY   87  79  76 S9        29.93F HX 101
MATTOON        PTSUNNY   89  77  67 S7        29.94F HX 101
$$

ILZ079-100>102-242200-
SOUTHWEST ILLINOIS

CITY           SKY/WX    TMP DP  RH WIND       PRES   REMARKS
ALTON          MOSUNNY   93  79  62 SE7       29.92  HX 110
BELLEVILLE     MOSUNNY   94  82  66 SE7       29.91F HX 117
CAHOKIA*       MOSUNNY   97  78  54 SE10      29.90F HX 114
SPARTA*        MOSUNNY   91  79  68 S7        29.95F HX 106
$$

ILZ064>066-069>071-074>076-080>082-084>086-088>090-092>094-242200-
SOUTH-CENTRAL ILLINOIS

CITY           SKY/WX    TMP DP  RH WIND       PRES   REMARKS
CARBONDALE     MOSUNNY   92  74  55 SW9       29.95F HX 101
EFFINGHAM*     PTSUNNY   91  78  65 S7        29.96F HX 107
MT. VERNON     MOSUNNY   97  75  49 SW3       29.95F HX 109
CENTRALIA*     SUNNY     94  78  60 S5        29.94S HX 110
SALEM*         MOSUNNY   93  75  56 SW7       29.94F HX 104
$$

ILZ067-068-072-073-078-083-087-091-242200-
SOUTHEAST ILLINOIS

CITY           SKY/WX    TMP DP  RH WIND       PRES   REMARKS
LAWRENCEVILLE  MOSUNNY   91  77  63 SW13      29.95F HX 104
FLORA*         MOSUNNY   93  79  65 S8        29.95F HX 110
FAIRFIELD*     PTSUNNY   90  78  66 S8        29.94S HX 103
HARRISBURG*    CLOUDY    90  78  68 S7        29.96F HX 105
ROBINSON*      MOSUNNY   90  77  65 SW8       29.96S HX 103
CARMI*         MOSUNNY   90  79  70 S6        29.95F HX 106
$$

ABBREVIATIONS USED IN REMARKS
   TC - TEMPERATURE IN CELSIUS
  WCI - WIND CHILL INDEX
   HX - HEAT INDEX
  VSB - VISIBILITY
$$





USA.gov is the U.S. government's official web portal to all federal, state and local government web resources and services.